[[{"header":{"parameterUnit":"m.s-1","parameterCategory":1,"la1":30.2992,"la2":30.254,"lo1":-89.0895,"lo2":-89.0443,"dy":0.0025,"dx":0.0025,"nx":19,"ny":19,"refTime":"2026-05-14T09:00:00:Z","depth":0,"parameterNumber":2,"parameterNumberName":"U-component_of_WINDS"},"data":[0,0,0,-1.0679,-1.0679,-1.068,-1.068,-1.069,-1.069,0,0,0,0,0,0,0,0,0,0,0,-1.0684,-1.0684,-1.0679,-1.0679,-1.068,-1.068,-1.069,-1.069,0,0,0,0,0,0,0,0,0,0,0,-1.0683,-1.0684,-1.0684,-1.0679,-1.068,-1.068,-1.069,-1.0686,0,0,0,0,0,0,0,0,0,0,-1.0684,-1.0693,-1.0684,-1.0684,-1.0679,-1.068,-1.068,-1.0686,-1.0686,-1.0693,0,-1.07,0,-1.0695,-1.0691,-1.0691,0,0,0,-1.0675,-1.0692,-1.0688,-1.0684,-1.0679,-1.068,-1.0678,-1.0686,-1.0687,-1.0694,-1.07,-1.0701,-1.0696,-1.0692,-1.0692,-1.0743,-1.0743,0,0,-1.0675,-1.0686,-1.0688,-1.0689,-1.0689,-1.0678,-1.0678,-1.0686,-1.0694,-1.07,-1.0701,-1.0696,-1.0692,-1.0692,-1.0742,-1.0743,0,0,0,-1.0678,-1.0687,-1.0682,-1.0689,-1.0688,-1.0679,-1.0679,-1.0694,-1.0691,-1.0701,-1.0696,-1.0692,-1.0692,-1.0742,-1.0743,-1.0774,0,0,0,-1.0677,-1.0688,-1.0682,-1.0689,-1.0688,-1.0691,-1.0686,-1.0691,-1.0691,-1.0696,-1.0692,-1.0692,-1.0741,-1.0742,-1.0772,-1.0787,0,0,0,-1.0682,-1.0688,-1.069,-1.0689,-1.069,-1.069,-1.0688,-1.069,-1.0689,-1.0691,-1.0692,-1.0741,-1.0742,-1.077,-1.0784,-1.0804,0,0,0,-1.069,-1.0718,-1.0691,-1.072,-1.069,-1.0709,-1.0688,-1.0702,-1.0708,-1.0692,-1.0742,-1.0743,-1.077,-1.0782,-1.0803,-1.0824,-1.0833,0,0,-1.0731,-1.0723,-1.0739,-1.0715,-1.0742,-1.0708,-1.074,-1.0735,-1.0725,-1.0738,-1.0739,-1.0773,-1.0784,-1.0804,-1.0882,-1.089,0,0,0,-1.0756,-1.0768,-1.0773,-1.0779,-1.0776,-1.0775,-1.0764,-1.0763,-1.0772,-1.0734,-1.0784,-1.0791,-1.0802,-1.0812,-1.0818,-1.0828,-1.0747,-1.0747,-1.0747,-1.0831,-1.0817,-1.0843,-1.0829,-1.0836,-1.0825,-1.0829,-1.0825,-1.0809,-1.0821,-1.0825,-1.0874,-1.0886,-1.089,-1.09,-1.0834,-1.0834,-1.0834,-1.0835,-1.0891,-1.0906,-1.0884,-1.0902,-1.0887,-1.0902,-1.0893,-1.0881,-1.0893,-1.087,-1.0879,-1.0855,-1.0899,-1.0907,-1.0837,-1.0836,-1.0836,-1.0836,-1.0836,-1.0939,-1.0944,-1.0941,-1.0949,-1.0957,-1.0942,-1.0955,-1.0941,-1.0928,-1.0937,-1.094,-1.094,-1.0938,-1.0939,-1.094,-1.094,-1.094,-1.094,-1.094,-1.099,-1.0986,-1.0999,-1.0998,-1.1001,-1.1002,-1.0991,-1.0994,-1.0993,-1.0982,-1.0982,-1.0965,-1.0906,-1.0892,-1.0943,-1.0942,-1.0942,-1.0942,-1.0941,-1.1058,-1.104,-1.106,-1.1062,-1.1061,-1.107,-1.1052,-1.1058,-1.1058,-1.1065,-1.1046,-1.1004,-1.0995,-1.099,-1.0978,-1.1048,-1.1048,-1.1048,-1.1048,-1.1099,-1.1093,-1.111,-1.1115,-1.1118,-1.1104,-1.1127,-1.1119,-1.1109,-1.1108,-1.1095,-1.1078,-1.1074,-1.1067,-1.106,-1.1049,-1.1136,-1.1136,-1.1136,-1.1141,-1.1134,-1.1156,-1.1145,-1.1143,-1.1142,-1.1163,-1.1171,-1.1155,-1.114,-1.1107,-1.1104,-1.1076,-1.1067,-1.1052,-1.1042,-1.1021,0,0]},{"header":{"parameterUnit":"m.s-1","parameterCategory":1,"la1":30.2992,"la2":30.254,"lo1":-89.0895,"lo2":-89.0443,"dy":0.0025,"dx":0.0025,"nx":19,"ny":19,"refTime":"2026-05-14T09:00:00:Z","depth":0,"parameterNumber":3,"parameterNumberName":"V-component_of_WINDS"},"data":[0,0,0,3.5668,3.5669,3.5703,3.5703,3.5761,3.5762,0,0,0,0,0,0,0,0,0,0,0,3.5669,3.567,3.5668,3.567,3.5703,3.5703,3.5761,3.5762,0,0,0,0,0,0,0,0,0,0,0,3.5669,3.567,3.5671,3.567,3.5703,3.5703,3.5761,3.573,0,0,0,0,0,0,0,0,0,0,3.5695,3.5706,3.567,3.5671,3.567,3.5703,3.5703,3.5728,3.5732,3.5753,0,3.5776,0,3.577,3.5767,3.5767,0,0,0,3.5662,3.5703,3.5703,3.5671,3.567,3.5703,3.5685,3.573,3.5734,3.5758,3.5776,3.5778,3.5771,3.5767,3.5768,3.5917,3.5918,0,0,3.566,3.5681,3.57,3.5706,3.5703,3.5684,3.5687,3.5732,3.5753,3.5777,3.5779,3.5772,3.5768,3.5768,3.5916,3.5917,0,0,0,3.566,3.568,3.5678,3.5704,3.5709,3.5686,3.5688,3.5751,3.5749,3.578,3.5772,3.5768,3.5769,3.5915,3.5916,3.5989,0,0,0,3.5658,3.568,3.5677,3.5691,3.5708,3.5731,3.5706,3.5746,3.575,3.5772,3.5768,3.577,3.5914,3.5916,3.5984,3.6019,0,0,0,3.5663,3.5681,3.5689,3.5692,3.5707,3.5729,3.5729,3.5746,3.5746,3.5767,3.577,3.5913,3.5915,3.598,3.6012,3.6063,0,0,0,3.5675,3.5755,3.5691,3.5776,3.5707,3.5775,3.5729,3.5778,3.5805,3.5769,3.5914,3.5916,3.5979,3.6008,3.6059,3.6108,3.6131,0,0,3.5787,3.5769,3.5817,3.5761,3.5845,3.5768,3.5862,3.5867,3.585,3.5895,3.5899,3.5986,3.6012,3.6062,3.6256,3.6274,0,0,0,3.586,3.5895,3.5912,3.5938,3.5943,3.595,3.5937,3.5939,3.5976,3.5878,3.6018,3.6033,3.6061,3.6084,3.6099,3.6121,3.5928,3.5928,3.5928,3.6049,3.6021,3.6098,3.6074,3.61,3.6086,3.6103,3.6102,3.6069,3.6102,3.6115,3.6236,3.6263,3.6275,3.6298,3.614,3.6141,3.6141,3.6141,3.6208,3.6252,3.6203,3.626,3.6231,3.6278,3.6267,3.6241,3.628,3.6225,3.6248,3.6189,3.6296,3.6315,3.6146,3.6145,3.6145,3.6144,3.6144,3.6328,3.6343,3.6343,3.6376,3.6404,3.6377,3.6416,3.6388,3.6362,3.6386,3.6395,3.6393,3.6387,3.6392,3.6393,3.6393,3.6393,3.6394,3.6394,3.6451,3.6448,3.6484,3.6494,3.6505,3.6517,3.6502,3.6512,3.6516,3.6493,3.6493,3.6454,3.6312,3.6276,3.64,3.6399,3.6398,3.6398,3.6397,3.662,3.6577,3.6633,3.6644,3.6652,3.668,3.6644,3.6667,3.6671,3.6691,3.6647,3.6548,3.6527,3.6514,3.6484,3.6654,3.6654,3.6654,3.6654,3.672,3.6706,3.6755,3.6775,3.6791,3.6762,3.6825,3.6813,3.6794,3.6795,3.6766,3.6724,3.6713,3.6699,3.6682,3.6653,3.6863,3.6863,3.6863,3.6821,3.6807,3.6866,3.6846,3.6849,3.6853,3.691,3.6933,3.6903,3.6871,3.6794,3.6785,3.6717,3.6697,3.6662,3.6637,3.6584,0,0]}]]